Showing default

QPS-SAR-13, 100243

Orbit data source: Space-Track

QPS-SAR-13, 100243 is a payload satellite owned by QPS Labs (JP) in LEO that was launched on Thu, 06 Aug 2026 UTC launched from the Rocket Lab Launch Complex (RLLC). Payload-class satellites include a variety of spacecraft equipped with specific instruments for various scientific and technological missions. These include communications satellites like Starlink; space stations such as the ISS; scientific satellites like the Hubble; Earth observation satellites from companies like Planet Labs, Umbra, and HawkEye 360; GPS; miniature CubeSats for education and research; and military/defense satellites.

Loading next visibility...
Identifier
100243, 2026-180A
Orbit
LEO
Country
Flag of JPJP / JPN
Related business
Manufacturer
QPS Labs
Mission
Operational spacecraft
Bus & Motor
QSAT, Unknown motor
Mass
~120 kg wet, ~100 kg dry
Launch date (UTC)
2026-08-06 (1 month ago)
Launch vehicle
Unknown
Launch site
Rocket Lab Launch Complex (RLLC)
Object type
Payload
Rocket body
Debris
Shape & HBR
HEX CYL + 2 PAN + DISH, 14.5 m
Radar Cross Section
Large (>1 m²)

Expand to show TLE details & history
Last TLE update: 18 hours ago

TLE from 18 hours ago
0 QPS-SAR-13
1 A0243U 26180A   26254.23150413  .00002178  00000-0  19947-3 0  9995
2 A0243  42.0015 192.7059 0007433 152.8929 207.2285 14.97392042  5382
Epoch: 2026-09-11T05:33Z
TLE epoch observation values (Epoch: 2026-09-11T05:33:21.956Z)
Latitude
-0.00002°
Longitude
119.10657°
Altitude
579.222 km
Speed
7.57 km/s
True Right ascension
12h 50m 49s
True Declination
0° 00' 00"
Sunlit
Object was in daylight at epoch
Visualization orbit readout
Latitude
Unknown
Longitude
Unknown
Altitude
Unknown
Speed
Unknown
Apparent Right ascension
Unknown
Apparent Declination
Unknown
Sunlit
N/A
Visualization observer readout
Local Sidereal Time
15:47:01
Azimuth
Unknown
Elevation
Unknown
Doppler factor
Unknown
Orbital elements
Apogee altitude
582.212 km
Perigee altitude
571.873 km
Semi-major axis
6,955.18 km
Eccentricity
0.00074
Inclination
42.0015°
RAAN
192.7059°
Arg. of periapsis
152.8929°
True anomaly
207.18956°
Mean anomaly
207.2285°
Eccentric anomaly
207.20903°
Mean motion
3.7418 °/min
Orbital period
96.21 mins
BSTAR
0.00019947
Loading maneuver chart data...
Computing Atmospheric mass density...
Loading historical data...
Loading historical data...
Loading historical data...
Loading historical data...
Loading historical data...
Loading historical data...
Loading historical data...
Other satellites on launch #180 in the year 2026 (2026-08-06 UTC)

Documentation

Showing up to 5 results
|